Panama City, FL

6:14 AM CDT on July 21, 2017 (GMT -0500)
Northwest Florida Beaches International

Weather History for KECP - October, 2012

Change the Weather History Date:

Thursday, October 11, 2012

  Actual Average Record
Temperature  
Mean Temperature 72 °F -  
Max Temperature 84 °F - 88 °F (2014)
Min Temperature 59 °F - 51 °F (2016)
Degree Days  
Heating Degree Days 0    
Cooling Degree Days 7    
Growing Degree Days 20 (Base 50)    
Moisture  
Dew Point 59 °F    
Average Humidity 70    
Maximum Humidity 97    
Minimum Humidity 43    
Precipitation  
Precipitation 0.00 in - 0.00 in (2017)
Month to date precipitation  
Year to date precipitation  
Sea Level Pressure  
Sea Level Pressure 30.21 in    
Wind  
Wind Speed 2 mph (NNE)    
Max Wind Speed 12 mph    
Max Gust Speed 28 mph    
Visibility 10 miles    
Events      
T = Trace of Precipitation, MM = Missing Value Source: NWS Daily Summary

Daily Weather History Graph

Daily Weather History Graph

Search for Another Location

Airport or City:

Trip Planner

Search our weather history database for the weather conditions in past years. The results will help you decide how hot, cold, wet, or windy it might be!

Date:

Astronomy

Oct. 11, 2012 Rise Set
Actual Time 7:43 AM EDT 7:16 PM EDT
Civil Twilight 7:18 AM EDT 7:40 PM EDT
Nautical Twilight 6:51 AM EDT 8:07 PM EDT
Astronomical Twilight 6:23 AM EDT 8:35 PM EDT
Moon 3:37 AM EDT (10/11) 4:38 PM EDT (10/11)
Length of Visible Light 12h 21m
Length of Day
11h 32m
Waning Crescent, 18% of the Moon is Illuminated
Oct 11
Waning Crescent
Oct 15
New
Oct 21
First Quarter
Oct 29
Full
Nov 6
Last Quarter

Hourly Weather History & Observations

Time (EDT) Temp. Heat Index Dew Point Humidity Pressure Visibility Wind Dir Wind Speed Gust Speed Precip Events Conditions
12:53 AM 64.0 °F - 61.0 °F 90% 30.18 in 10.0 mi Calm Calm - N/A   Clear
1:53 AM 63.0 °F - 60.1 °F 90% 30.18 in 10.0 mi Calm Calm - N/A   Clear
2:53 AM 62.1 °F - 59.0 °F 90% 30.17 in 10.0 mi North 3.5 mph - N/A   Clear
3:53 AM 62.1 °F - 59.0 °F 90% 30.17 in 10.0 mi Calm Calm - N/A   Clear
4:53 AM 61.0 °F - 59.0 °F 93% 30.17 in 9.0 mi Calm Calm - N/A   Clear
5:53 AM 60.1 °F - 57.0 °F 90% 30.18 in 10.0 mi Calm Calm - N/A   Clear
6:53 AM 59.0 °F - 57.0 °F 93% 30.20 in 8.0 mi Calm Calm - N/A   Clear
7:53 AM - - 37.4 °F N/A% 30.22 in - North - - N/A   Unknown
8:53 AM 63.0 °F - 60.1 °F 90% 30.24 in 7.0 mi NNW 3.5 mph - N/A   Clear
9:53 AM 70.0 °F - 61.0 °F 73% 30.25 in 10.0 mi NNW 5.8 mph - N/A   Clear
10:53 AM 75.0 °F - 61.0 °F 62% 30.27 in 10.0 mi NE 5.8 mph - N/A   Clear
11:53 AM 78.1 °F - 59.0 °F 52% 30.26 in 10.0 mi NNE 6.9 mph - N/A   Clear
12:53 PM 80.1 °F 80.7 °F 59.0 °F 48% 30.25 in 10.0 mi ENE 8.1 mph - N/A   Clear
1:53 PM 81.0 °F 81.3 °F 59.0 °F 47% 30.23 in 10.0 mi WNW 3.5 mph - N/A   Clear
2:53 PM 82.9 °F 83.2 °F 60.1 °F 46% 30.21 in 10.0 mi North 6.9 mph - N/A   Clear
3:53 PM 82.9 °F 82.8 °F 59.0 °F 44% 30.20 in 10.0 mi NE 6.9 mph - N/A   Clear
4:53 PM 82.9 °F 82.6 °F 57.9 °F 42% 30.19 in 10.0 mi East 3.5 mph - N/A   Clear
5:53 PM 82.4 °F 82.5 °F 59.0 °F 45% 30.16 in 10.0 mi East 5.8 mph - N/A   Clear
6:53 PM 79.0 °F - 61.0 °F 54% 30.19 in 10.0 mi Calm Calm - N/A   Clear
7:53 PM 70.0 °F - 64.9 °F 84% 30.21 in 10.0 mi Calm Calm - N/A   Clear
8:53 PM 66.2 °F - 64.4 °F 94% 30.18 in 10.0 mi Calm Calm - N/A   Clear
9:53 PM 66.0 °F - 63.0 °F 90% 30.24 in 10.0 mi Calm Calm - N/A   Clear
10:53 PM 64.9 °F - 61.0 °F 87% 30.24 in 10.0 mi NNE 5.8 mph - N/A   Clear
11:53 PM 64.0 °F - 60.1 °F 87% 30.24 in 10.0 mi Calm Calm - N/A   Clear